CW5430 Weather Reports


time (UTC)temp
C
wind
direction
speed
KPH
gust
KPH
rain 1hr
cm
rain 24hr
cm
rain mn
cm
humidity
%
barometer
mb
20260506202012 18 244 3.2 11.3 0.00 0.25 0.25 82 1007.3
20260506201526 18 186 1.6 11.3 0.00 0.25 0.25 81 1007.2
20260506201008 18 218 1.6 14.5 0.00 0.25 0.25 81 1007.3
20260506200508 18 196 4.8 11.3 0.00 0.25 0.25 81 1007.2
20260506200025 18 244 4.8 11.3 0.00 0.25 0.25 81 1007.3
20260506195507 18 289 4.8 17.7 0.00 0.25 0.25 83 1007.3
20260506195015 18 263 3.2 17.7 0.00 0.25 0.25 83 1007.4
20260506194526 17 246 0.0 19.3 0.00 0.25 0.25 85 1007.4
20260506194009 17 265 1.6 19.3 0.00 0.25 0.25 84 1007.4
20260506193509 17 273 1.6 19.3 0.00 0.25 0.25 83 1007.6
20260506193027 17 259 3.2 12.9 0.00 0.25 0.25 85 1007.6
20260506192509 17 271 1.6 14.5 0.00 0.25 0.25 85 1007.8
20260506192011 17 221 3.2 14.5 0.00 0.25 0.25 85 1007.8
20260506191518 17 277 3.2 8.0 0.00 0.25 0.25 84 1007.9
20260506191007 17 254 3.2 8.0 0.00 0.25 0.25 84 1007.9
20260506190509 17 106 1.6 12.9 0.00 0.25 0.25 85 1007.9
20260506190024 17 217 4.8 17.7 0.00 0.25 0.25 85 1007.8
20260506185508 17 234 1.6 17.7 0.00 0.25 0.25 85 1007.8
20260506185011 17 218 3.2 14.5 0.00 0.25 0.25 85 1008.0
20260506184528 17 152 4.8 14.5 0.00 0.25 0.25 1008.0
20260506184008 17 213 3.2 12.9 0.00 0.25 0.25 1008.0
20260506183511 17 256 1.6 14.5 0.00 0.25 0.25 1008.0
20260506183026 17 191 3.2 16.1 0.00 0.25 0.25 1008.1
20260506182508 17 260 1.6 16.1 0.00 0.25 0.25 1008.0
20260506182010 17 262 6.4 16.1 0.00 0.25 0.25 1008.1
20260506181532 17 229 3.2 12.9 0.00 0.25 0.25 1008.2
20260506181008 17 218 3.2 12.9 0.00 0.25 0.25 1008.2
20260506180510 17 227 1.6 12.9 0.00 0.25 0.25 1008.1
20260506180023 17 298 4.8 12.9 0.00 0.25 0.25 85 1008.0
20260506175509 16 76 4.8 12.9 0.00 0.25 0.25 85 1008.1
20260506175010 16 305 3.2 17.7 0.00 0.25 0.25 87 1008.2
20260506174524 16 248 4.8 17.7 0.00 0.25 0.25 86 1008.2
20260506174013 16 280 3.2 11.3 0.03 0.25 0.25 87 1008.2
20260506173510 16 125 3.2 14.5 0.03 0.25 0.25 87 1008.2
20260506173026 16 245 4.8 14.5 0.03 0.25 0.25 87 1008.4
20260506172508 16 261 4.8 12.9 0.05 0.25 0.25 86 1008.3
20260506172008 16 331 4.8 12.9 0.05 0.25 0.25 87 1008.6
20260506171536 17 212 3.2 14.5 0.08 0.25 0.25 1008.6
20260506171007 17 243 1.6 14.5 0.08 0.25 0.25 88 1008.5
20260506170510 17 237 3.2 14.5 0.10 0.25 0.25 88 1008.5
20260506170022 17 235 1.6 16.1 0.10 0.25 0.25 89 1008.4
20260506165508 17 287 3.2 17.7 0.13 0.25 0.25 88 1008.6
20260506165010 17 242 1.6 17.7 0.13 0.25 0.25 89 1008.5
20260506164522 17 91 3.2 14.5 0.15 0.25 0.25 89 1008.4
20260506164013 16 271 4.8 14.5 0.15 0.23 0.23 88 1008.7
20260506163513 16 259 1.6 11.3 0.15 0.23 0.23 89 1008.4
20260506163030 16 293 1.6 11.3 0.18 0.23 0.23 89 1008.6
20260506162508 16 311 1.6 8.0 0.15 0.20 0.20 89 1008.9
20260506162012 16 82 0.0 3.2 0.15 0.20 0.20 89 1009.1
20260506161514 16 261 0.0 12.9 0.15 0.18 0.18 89 1009.3
20260506161007 16 237 3.2 12.9 0.18 0.18 0.18 88 1009.6
20260506160506 16 228 3.2 8.0 0.15 0.15 0.15 88 1009.7
20260506160032 16 126 1.6 8.0 0.15 0.15 0.15 88 1009.8
20260506155506 16 215 1.6 6.4 0.13 0.13 0.13 87 1010.0
20260506155011 16 262 1.6 16.1 0.13 0.13 0.13 87 1010.0
20260506154530 16 290 4.8 16.1 0.10 0.10 0.10 86 1010.0
20260506154012 16 265 1.6 9.7 0.08 0.08 0.08 86 1010.1
20260506153514 16 250 3.2 9.7 0.08 0.08 0.08 84 1010.0
20260506153024 17 246 1.6 11.3 0.05 0.05 0.05 84 1009.7
20260506152508 17 256 1.6 11.3 0.05 0.05 0.05 83 1009.8
20260506152015 17 265 0.0 8.0 0.05 0.05 0.05 82 1010.0
20260506151534 17 254 1.6 14.5 0.03 0.03 0.03 80 1009.9
20260506151015 18 267 1.6 14.5 0.00 0.00 0.00 76 1010.0
20260506150511 18 273 4.8 9.7 0.00 0.00 0.00 76 1009.6
20260506150027 18 215 1.6 9.7 0.00 0.00 0.00 75 1009.5
20260506145509 18 323 3.2 8.0 0.00 0.00 0.00 75 1009.6
20260506145012 18 198 1.6 16.1 0.00 0.00 0.00 75 1009.7
20260506144522 18 197 4.8 20.9 0.00 0.00 0.00 73 1009.8
20260506144014 18 304 3.2 20.9 0.00 0.00 0.00 73 1010.0
20260506143507 18 213 3.2 20.9 0.00 0.00 0.00 72 1010.0
20260506143039 18 292 1.6 19.3 0.00 0.00 0.00 70 1010.0
20260506142509 19 215 4.8 19.3 0.00 0.00 0.00 69 1010.0
20260506142012 19 161 1.6 16.1 0.00 0.00 0.00 68 1009.8
20260506141526 19 199 3.2 12.9 0.00 0.00 0.00 67 1009.9
20260506141007 19 229 6.4 14.5 0.00 0.00 0.00 67 1009.7
20260506140505 20 284 3.2 24.1 0.00 0.00 0.00 66 1009.6
20260506140015 20 331 8.0 24.1 0.00 0.00 0.00 68 1009.5
20260506135507 20 270 1.6 11.3 0.00 0.00 0.00 69 1009.7
20260506135007 19 198 3.2 11.3 0.00 0.00 0.00 69 1009.5
20260506134520 19 24 3.2 14.5 0.00 0.00 0.00 70 1009.6
20260506134003 19 5 3.2 14.5 0.00 0.00 0.00 70 1009.6
20260506133503 18 264 3.2 9.7 0.00 0.00 0.00 71 1009.7
20260506133006 18 298 1.6 11.3 0.00 0.00 0.00 71 1009.7
20260506132504 18 224 3.2 20.9 0.00 0.00 0.00 70 1009.8
20260506132008 18 225 1.6 20.9 0.00 0.00 0.00 72 1009.7
20260506131514 18 288 4.8 20.9 0.00 0.00 0.00 71 1009.7
20260506131006 18 254 3.2 14.5 0.00 0.00 0.00 71 1010.0
20260506130506 18 297 1.6 14.5 0.00 0.00 0.00 72 1010.1
20260506130012 18 236 3.2 14.5 0.00 0.00 0.00 71 1010.2
20260506125504 18 227 3.2 14.5 0.00 0.00 0.00 70 1010.2
20260506125008 18 242 1.6 14.5 0.00 0.00 0.00 72 1010.0
20260506124516 18 210 3.2 16.1 0.00 0.00 0.00 72 1009.9
20260506124008 18 288 1.6 17.7 0.00 0.00 0.00 72 1010.0
20260506123507 18 238 3.2 17.7 0.00 0.00 0.00 72 1010.0
20260506123004 18 296 3.2 11.3 0.00 0.00 0.00 72 1009.7
20260506122504 18 55 3.2 20.9 0.00 0.00 0.00 72 1009.7
20260506122006 18 151 3.2 20.9 0.00 0.00 0.00 73 1009.7
20260506121507 18 238 3.2 11.3 0.00 0.00 0.00 74 1009.7
20260506121003 18 138 3.2 14.5 0.00 0.00 0.00 74 1009.8
20260506120505 18 261 1.6 14.5 0.00 0.00 0.00 75 1009.9
20260506120011 17 238 4.8 12.9 0.00 0.00 0.00 75 1009.8
20260506115508 17 309 3.2 11.3 0.00 0.00 0.00 75 1009.8
20260506115007 17 311 1.6 9.7 0.00 0.00 0.00 75 1009.7
20260506114520 17 96 1.6 16.1 0.00 0.00 0.00 75 1009.7
20260506114008 17 246 4.8 19.3 0.00 0.00 0.00 75 1009.7
20260506113509 17 272 1.6 19.3 0.00 0.00 0.00 75 1009.7
20260506113022 17 216 3.2 11.3 0.00 0.00 0.00 76 1009.6
20260506112508 17 87 3.2 14.5 0.00 0.00 0.00 76 1009.7
20260506112011 17 259 1.6 14.5 0.00 0.00 0.00 76 1009.8
20260506111508 17 120 1.6 12.9 0.00 0.00 0.00 76 1009.7
20260506111003 17 92 3.2 12.9 0.00 0.00 0.00 76 1009.7
20260506110506 17 277 3.2 11.3 0.00 0.00 0.00 76 1009.6
20260506110010 17 86 1.6 11.3 0.00 0.00 0.00 77 1009.7
20260506105504 17 213 1.6 11.3 0.00 0.00 0.00 77 1009.6
20260506105007 17 281 3.2 14.5 0.00 0.00 0.00 77 1009.6
20260506104513 17 198 1.6 14.5 0.00 0.00 0.00 77 1009.6
20260506104007 17 81 3.2 12.9 0.00 0.00 0.00 77 1009.7
20260506103507 17 314 1.6 12.9 0.00 0.00 0.00 78 1009.5
20260506103020 17 306 3.2 19.3 0.00 0.00 0.00 78 1009.6
20260506102507 17 161 4.8 19.3 0.00 0.00 0.00 78 1009.6
20260506102008 17 289 1.6 16.1 0.00 0.00 0.00 78 1009.5
20260506101543 17 291 1.6 11.3 0.00 0.00 0.00 78 1009.5
20260506101015 17 239 1.6 11.3 0.00 0.00 0.00 78 1009.6
20260506100504 17 143 1.6 9.7 0.00 0.00 0.00 78 1009.6
20260506100007 17 288 1.6 9.7 0.00 0.00 0.00 78 1009.7
20260506095504 17 220 1.6 9.7 0.00 0.00 0.00 78 1009.7
20260506095004 17 116 1.6 9.7 0.00 0.00 0.00 78 1009.6
20260506094517 17 238 1.6 9.7 0.00 0.00 0.00 78 1009.4
20260506094007 17 325 3.2 14.5 0.00 0.00 0.00 78 1009.4
20260506093512 17 308 3.2 14.5 0.00 0.00 0.00 77 1009.4
20260506093016 17 293 3.2 9.7 0.00 0.00 0.00 77 1009.4
20260506092508 17 219 3.2 12.9 0.00 0.00 0.00 77 1009.4
20260506092010 17 200 3.2 12.9 0.00 0.00 0.00 77 1009.5
20260506091524 17 223 3.2 8.0 0.00 0.00 0.00 77 1009.5
20260506091010 17 226 3.2 9.7 0.00 0.00 0.00 76 1009.4
20260506090510 17 164 3.2 9.7 0.00 0.00 0.00 76 1009.5
20260506090024 17 24 1.6 11.3 0.00 0.00 0.00 77 1009.6
20260506085504 17 284 1.6 11.3 0.00 0.00 0.00 76 1009.6
20260506085004 17 116 1.6 12.9 0.00 0.00 0.00 77 1009.5
20260506084516 17 253 3.2 12.9 0.00 0.00 0.00 77 1009.6
20260506084004 17 107 3.2 8.0 0.00 0.00 0.00 77 1009.7
20260506083507 17 169 1.6 8.0 0.00 0.00 0.00 77 1009.6
20260506083017 17 250 1.6 8.0 0.00 0.00 0.00 77 1009.5
20260506082506 17 214 1.6 8.0 0.00 0.00 0.00 77 1009.6
20260506082012 17 210 1.6 6.4 0.00 0.00 0.00 77 1009.7
20260506081520 17 225 1.6 6.4 0.00 0.00 0.00 77 1009.7
20260506081016 17 29 1.6 6.4 0.00 0.00 0.00 77 1009.8
20260506080511 17 220 1.6 6.4 0.00 0.00 0.00 77 1009.7
20260506073503 17 9 0.0 4.8 0.00 0.00 0.00 76 1009.9
20260506073014 17 300 0.0 4.8 0.00 0.00 0.00 76 1009.9
20260506072513 18 141 0.0 6.4 0.00 0.00 0.00 76 1009.9
20260506072012 18 299 1.6 6.4 0.00 0.00 0.00 76 1010.0
20260506071520 18 104 1.6 6.4 0.00 0.00 0.00 75 1010.0
20260506071008 18 301 1.6 6.4 0.00 0.00 0.00 75 1010.1
20260506070509 18 279 0.0 4.8 0.00 0.00 0.00 75 1010.1
20260506062514 18 276 1.6 8.0 0.00 0.00 0.00 74 1010.4
20260506062007 18 193 1.6 6.4 0.00 0.00 0.00 73 1010.3
20260506061516 18 247 1.6 6.4 0.00 0.00 0.00 73 1010.3
20260506061011 18 272 0.0 6.4 0.00 0.00 0.00 73 1010.3
20260506060508 18 221 1.6 6.4 0.00 0.00 0.00 72 1010.3
20260506051012 19 247 1.6 9.7 0.00 0.00 0.00 69 1010.8
20260506050515 19 213 1.6 14.5 0.00 0.00 0.00 69 1010.7
20260506045009 19 264 4.8 12.9 0.00 0.00 0.00 68 1010.8
20260506044526 19 257 3.2 9.7 0.00 0.00 0.00 68 1010.9
20260506044013 19 101 3.2 6.4 0.00 0.00 0.00 68 1010.8
20260506043510 19 275 1.6 6.4 0.00 0.00 0.00 67 1010.7
20260506043027 19 115 1.6 8.0 0.00 0.00 0.00 67 1010.8
20260506042510 19 136 1.6 9.7 0.00 0.00 0.00 66 1010.9
20260506042017 19 286 1.6 11.3 0.00 0.00 0.00 65 1010.8
20260506041524 19 180 1.6 11.3 0.00 0.00 0.00 65 1010.8
20260506041004 20 253 1.6 14.5 0.00 0.00 0.00 65 1010.6
20260506040508 20 96 3.2 14.5 0.00 0.00 0.00 65 1010.7
20260506040016 20 296 3.2 14.5 0.00 0.00 0.00 64 1010.6
20260506035508 20 294 3.2 11.3 0.00 0.00 0.00 64 1010.6
20260506035008 20 164 1.6 8.0 0.00 0.00 0.00 64 1010.6
20260506034522 20 41 1.6 9.7 0.00 0.00 0.00 64 1010.6
20260506034007 20 323 1.6 9.7 0.00 0.00 0.00 63 1010.5
20260506033509 20 116 1.6 9.7 0.00 0.00 0.00 63 1010.5
20260506033005 20 169 1.6 11.3 0.00 0.00 0.00 63 1010.6
20260506032503 20 180 3.2 14.5 0.00 0.00 0.00 62 1010.6
20260506032004 20 88 3.2 14.5 0.00 0.00 0.00 62 1010.5
20260506031513 20 90 3.2 11.3 0.00 0.00 0.00 62 1010.6
20260506031005 20 286 3.2 11.3 0.00 0.00 0.00 62 1010.6
20260506030508 20 139 1.6 11.3 0.00 0.00 0.00 62 1010.7
20260506030015 20 190 1.6 11.3 0.00 0.00 0.00 62 1010.7
20260506025509 20 267 1.6 11.3 0.00 0.00 0.00 61 1010.7
20260506025009 20 159 1.6 11.3 0.00 0.00 0.00 61 1010.7
20260506024518 20 51 1.6 14.5 0.00 0.00 0.00 61 1010.8
20260506024013 20 252 3.2 14.5 0.00 0.00 0.00 60 1010.7
20260506023513 20 110 1.6 20.9 0.00 0.00 0.00 60 1010.8
20260506023025 20 128 1.6 20.9 0.00 0.00 0.00 60 1010.8
20260506022511 20 189 1.6 16.1 0.00 0.00 0.00 60 1010.8
20260506022004 20 136 1.6 16.1 0.00 0.00 0.00 59 1010.8
20260506021509 20 184 3.2 9.7 0.00 0.00 0.00 59 1010.7
20260506021003 20 192 3.2 11.3 0.00 0.00 0.00 59 1010.8
20260506020513 21 192 3.2 14.5 0.00 0.00 0.00 59 1010.7
20260506020014 21 94 3.2 16.1 0.00 0.00 0.00 58 1010.7
20260506015507 21 184 4.8 16.1 0.00 0.00 0.00 58 1010.7
20260506015007 21 91 1.6 9.7 0.00 0.00 0.00 57 1010.7
20260506014519 21 135 1.6 11.3 0.00 0.00 0.00 56 1010.6
20260506014007 21 53 3.2 11.3 0.00 0.00 0.00 55 1010.5
20260506013509 21 178 1.6 11.3 0.00 0.00 0.00 54 1010.4
20260506013026 21 171 1.6 11.3 0.00 0.00 0.00 54 1010.4
20260506012509 22 268 1.6 8.0 0.00 0.00 0.00 53 1010.4
20260506012011 22 197 1.6 9.7 0.00 0.00 0.00 52 1010.3
20260506011526 22 96 1.6 9.7 0.00 0.00 0.00 50 1010.3
20260506011004 22 307 1.6 6.4 0.00 0.00 0.00 50 1010.2
20260506010503 22 321 1.6 9.7 0.00 0.00 0.00 49 1010.1
20260506010012 22 294 3.2 9.7 0.00 0.00 0.00 48 1010.0
20260506005504 22 246 1.6 4.8 0.00 0.00 0.00 46 1010.0
20260506005015 23 169 1.6 12.9 0.00 0.00 0.00 46 1009.9
20260506004523 23 254 1.6 12.9 0.00 0.00 0.00 45 1009.9
20260506004009 23 221 1.6 6.4 0.00 0.00 0.00 44 1009.8
20260506003510 23 221 1.6 6.4 0.00 0.00 0.00 43 1009.8
20260506003020 23 96 1.6 11.3 0.00 0.00 0.00 43 1009.7
20260506002510 23 284 3.2 11.3 0.00 0.00 0.00 43 1009.7
20260506002013 23 261 4.8 11.3 0.00 0.00 0.00 43 1009.5
20260506001521 23 252 1.6 12.9 0.00 0.00 0.00 43 1009.5
20260506001010 23 227 3.2 12.9 0.00 0.00 0.00 43 1009.5
20260506000507 23 263 4.8 12.9 0.00 0.00 0.00 42 1009.5
20260506000016 23 177 3.2 9.7 0.00 0.00 0.00 42 1009.5
20260505235508 24 202 1.6 11.3 0.00 0.00 0.00 42 1009.4
20260505235007 24 262 3.2 14.5 0.00 0.00 0.00 43 1009.4
20260505234519 24 232 3.2 14.5 0.00 0.00 0.00 43 1009.4
20260505234009 24 284 3.2 12.9 0.00 0.00 0.00 43 1009.3
20260505233513 24 201 1.6 8.0 0.00 0.00 0.00 44 1009.3
20260505233018 24 256 1.6 11.3 0.00 0.00 0.00 43 1009.3
20260505232509 24 207 3.2 12.9 0.00 0.00 0.00 43 1009.2
20260505232010 24 213 3.2 12.9 0.00 0.00 0.00 43 1009.1
20260505231523 24 236 1.6 9.7 0.00 0.00 0.00 42 1009.1
20260505231010 25 212 3.2 11.3 0.00 0.00 0.00 42 1009.1
20260505230513 25 259 3.2 11.3 0.00 0.00 0.00 42 1009.1
20260505230027 25 207 3.2 12.9 0.00 0.00 0.00 42 1009.1
20260505225513 25 188 3.2 14.5 0.00 0.00 0.00 41 1009.1
20260505225004 25 225 4.8 14.5 0.00 0.00 0.00 41 1009.0
20260505224512 25 240 3.2 14.5 0.00 0.00 0.00 40 1008.9
20260505224012 26 301 1.6 12.9 0.00 0.00 0.00 41 1008.9
20260505223507 26 264 3.2 17.7 0.00 0.00 0.00 38 1008.9
20260505223018 26 194 8.0 17.7 0.00 0.00 0.00 36 1008.8
20260505222507 26 269 3.2 17.7 0.00 0.00 0.00 37 1008.7
20260505222009 26 227 4.8 19.3 0.00 0.00 0.00 36 1008.9
20260505221518 26 17 4.8 25.7 0.00 0.00 0.00 35 1008.8
20260505221008 26 254 4.8 25.7 0.00 0.00 0.00 36 1008.7
20260505220508 26 249 3.2 12.9 0.00 0.00 0.00 36 1008.7
20260505220034 26 171 3.2 14.5 0.00 0.00 0.00 36 1008.7
20260505215512 26 277 8.0 14.5 0.00 0.00 0.00 35 1008.7
20260505215010 26 159 3.2 16.1 0.00 0.00 0.00 35 1008.7
20260505214547 27 116 6.4 16.1 0.00 0.00 0.00 35 1008.6
20260505214006 27 140 4.8 12.9 0.00 0.00 0.00 34 1008.6
20260505213507 27 153 3.2 20.9 0.00 0.00 0.00 34 1008.7
20260505213018 27 196 4.8 24.1 0.00 0.00 0.00 35 1008.7
20260505212507 27 180 3.2 24.1 0.00 0.00 0.00 33 1008.8
20260505212009 28 293 6.4 17.7 0.00 0.00 0.00 32 1008.7
20260505211518 27 298 3.2 12.9 0.00 0.00 0.00 34 1008.8
20260505211010 28 312 3.2 14.5 0.00 0.00 0.00 33 1008.7
20260505210508 27 248 4.8 17.7 0.00 0.00 0.00 31 1008.7
20260505210029 27 189 8.0 19.3 0.00 0.00 0.00 30 1008.6
20260505205515 27 257 6.4 19.3 0.00 0.00 0.00 31 1008.6
20260505205016 28 229 4.8 24.1 0.00 0.00 0.00 31 1008.7
20260505204531 28 269 4.8 24.1 0.00 0.00 0.00 30 1008.7
20260505204010 28 262 11.3 22.5 0.00 0.00 0.00 30 1008.6
20260505203514 28 121 3.2 14.5 0.00 0.00 0.00 31 1008.6
20260505203009 28 252 1.6 20.9 0.00 0.00 0.00 31 1008.6
20260505202506 28 144 4.8 22.5 0.00 0.00 0.00 29 1008.7